COSMOS 1275 DEB, 42226

Orbit data source: Space-Track

COSMOS 1275 DEB, 42226 is space debris in LEO originally from a launch on Thu, 04 Jun 1981 UTC launched from the Plesetsk Missile And Space Complex (PKMTR). Debris objects in space refer to the collection of defunct objects orbiting the Earth. Examples of debris include non-operational satellites, rocket bodies, and fragments generated from explosions, collisions, or faulty payload assembly.

Loading next visibility...
Identifier
42226, 1981-053US
Orbit
LEO
Country
Flag of CISCIS
Related business
Manufacturer
Unknown
Mission
Spacecraft
Bus & Motor
Unknown
Mass
Unknown
Launch date (UTC)
1981-06-04 (44 years ago)
Launch vehicle
Unknown
Launch site
Plesetsk Missile And Space Complex (PKMTR)
Object type
Payload
Rocket body
Debris
Shape & HBR
Unknown
Radar Cross Section
Small (<0.1 m²)

Expand to show TLE details & history
Last TLE update: 1 week ago

TLE from 1 week ago
0 COSMOS 1275 DEB
1 42226U 81053US  25249.71824234  .00001124  00000-0  12426-2 0  9991
2 42226  82.9517  52.4234 0109165 246.9099 112.0517 13.68556748588608
Epoch: 2025-09-06T17:14Z
TLE epoch observation values (Epoch: 2025-09-06T17:14:16.138Z)
Latitude
-0.00002°
Longitude
167.80811°
Altitude
1,038.664 km
Speed
7.317 km/s
True Right ascension
03h 29m 41s
True Declination
0° 00' 00"
Sunlit
Object was in daylight at epoch
Visualization orbit readout
Latitude
Unknown
Longitude
Unknown
Altitude
Unknown
Speed
Unknown
Apparent Right ascension
Unknown
Apparent Declination
Unknown
Sunlit
N/A
Visualization observer readout
Local Sidereal Time
20:50:02
Azimuth
Unknown
Elevation
Unknown
Doppler factor
Unknown
Orbital elements
Apogee altitude
1,082.478 km
Perigee altitude
921.35 km
Semi-major axis
7,380.051 km
Eccentricity
0.01092
Inclination
82.9517°
RAAN
52.4234°
Arg. of periapsis
246.9099°
True anomaly
113.20514°
Mean anomaly
112.0517°
Eccentric anomaly
112.62902°
Mean motion
3.42337 °/min
Orbital period
105.16 mins
BSTAR
0.0012426
Loading maneuver chart data...
Computing Atmospheric mass density...
Loading historical data...
Loading historical data...
Loading historical data...
Loading historical data...
Loading historical data...
Loading historical data...
Loading historical data...

Documentation

Showing up to 5 results
|